Location: Aschach
(48.3667°N, 14.0333°E)
Time: 16:47:41
(UTC+00:00)

Daily predictions for brighter satellites

Satellite Brightness Start Highest point End
(mag) Time Altitude Azimuth Time Altitude Azimuth Time Altitude Azimuth
Cosmos 2184 Rocket 4.1 16:13:26 10° S 16:19:37 88° W 16:25:49 10° N
Cosmos 2150 Rocket 4.4 16:14:45 10° SSW 16:19:52 65° WNW 16:25:01 10° NNE
Feng Yun 1-1 Rocket 4.4 16:14:31 10° SSE 16:20:15 76° ENE 16:26:10 10° NNW
Meteor 2-5 Rocket 4.2 16:14:47 10° SSW 16:20:16 64° WNW 16:25:53 10° N
Cosmos 1242 Rocket 2.5 16:17:37 10° S 16:21:08 89° WNW 16:24:44 10° NNE
Starlink Q 3.6 16:18:48 10° W 16:21:46 42° NNW 16:24:46 10° ENE
ERBS 2.8 16:19:00 10° SSW 16:22:13 46° SE 16:25:25 10° ENE
Starlink P 3.6 16:20:35 10° W 16:23:33 41° NNW 16:26:32 10° ENE
Cosmos 1602 Rocket 3.6 16:19:52 10° S 16:24:11 66° E 16:28:32 10° NNE
Cosmos 1125 Rocket 3.5 16:19:06 10° SSW 16:24:17 82° ESE 16:29:33 10° NNE
Starlink U 3.6 16:22:22 10° W 16:25:19 41° NNW 16:28:18 10° ENE
Starlink B 3.7 16:24:09 10° W 16:27:07 40° NNW 16:30:05 10° ENE
COSMOS 2428 4.0 16:22:15 10° NW 16:27:43 47° WSW 16:33:09 10° S
Cosmos 2154 Rocket 4.0 16:22:10 10° S 16:28:24 71° E 16:34:37 10° NNE
CZ-4B R/B 3.7 16:26:05 10° NNW 16:28:29 21° WNW 16:30:52 10° WSW
Envisat 3.0 16:27:57 10° SSE 16:32:58 65° ENE 16:38:01 10° N
NOSS 0 Rocket 4.4 16:27:20 10° NNW 16:33:32 71° WSW 16:39:41 10° SSE
COSMO-SKYMED 1 3.4 16:33:28 10° NNE 16:37:19 30° E 16:41:10 10° SSE
Starlink D 3.8 16:35:08 10° W 16:38:05 38° N 16:40:46 12° ENE
Starlink S 3.8 16:37:01 10° W 16:39:58 37° N 16:42:34 12° ENE
Cosmos 1758 Rocket 3.8 16:37:41 10° SSE 16:41:46 44° E 16:45:53 10° NNE
Starlink C 3.8 16:38:50 10° W 16:41:48 37° N 16:44:19 13° ENE
Meteor 2-1 Rocket 4.2 16:36:30 10° N 16:42:02 83° ENE 16:47:36 10° SSE
Starlink E 3.8 16:40:44 10° W 16:43:41 37° N 16:46:08 13° ENE
Cosmos 1626 Rocket 4.1 16:41:01 10° SSW 16:45:17 61° WNW 16:49:34 10° N
Cosmos 44 4.1 16:41:36 10° S 16:45:34 30° ESE 16:48:53 13° ENE
Starlink J 3.8 16:42:37 10° W 16:45:34 36° N 16:47:57 14° NE
Starlink V 3.8 16:44:30 10° WNW 16:47:26 36° N 16:49:44 15° NE
YAOGAN 6 2.6 16:44:52 10° SSE 16:48:30 60° ENE 16:52:06 10° N
Starlink H 3.8 16:46:24 10° WNW 16:49:21 36° N 16:51:34 15° NE
Cosmos 1703 4.4 16:46:21 10° SE 16:49:32 24° E 16:52:44 10° NE
USA 267 3.4 16:43:08 10° NE 16:49:41 78° NNW 16:56:12 10° WSW
Cosmos 1269 Rocket 4.3 16:44:28 10° NNW 16:49:46 75° WSW 16:55:02 10° SSE
Cosmos 2366 rocket 4.5 16:45:31 10° SSE 16:51:08 37° E 16:56:49 10° NNE
Starlink F 3.9 16:48:18 10° WNW 16:51:15 36° N 16:53:23 16° NE
NOAA 12 4.2 16:46:29 10° SSE 16:51:44 83° WSW 16:57:01 10° NNW
Starlink G 3.9 16:50:12 10° WNW 16:53:09 35° N 16:55:13 16° NE
Starlink L 3.9 16:52:06 10° WNW 16:55:03 35° N 16:57:02 17° NE
Cosmos 1939 Rocket 3.7 16:52:42 10° SE 16:56:04 28° ENE 16:59:29 10° N
Cosmos 1626 3.4 16:53:18 10° SSW 16:56:50 43° WNW 17:00:24 10° N
Starlink A 3.9 16:54:01 10° WNW 16:56:57 35° N 16:58:52 18° NE
Cosmos 962 Rocket 4.4 16:50:57 10° S 16:57:03 74° E 17:03:15 10° NNE
Starlink R 3.9 16:55:56 10° WNW 16:58:53 35° N 17:00:42 19° NE
Starlink K 3.9 16:57:49 10° WNW 17:00:46 35° N 17:02:31 19° NE
Starlink M 3.9 16:59:42 10° WNW 17:02:38 34° N 17:04:19 20° NE
Cosmos 2237 Rocket 2.9 16:59:57 10° NW 17:05:28 58° WSW 17:10:57 10° S
Cosmos 1825 Rocket 3.4 17:01:11 10° S 17:05:30 69° E 17:09:49 10° NNE
ATLAS CENTAUR R/B 4.3 17:01:22 10° W 17:07:21 60° NNW 17:21:12 15° ENE
Okean-O 2.9 17:03:41 10° S 17:08:06 71° WSW 17:12:33 10° NNW
Starlink AR 3.8 17:05:59 10° WNW 17:08:15 27° N 17:09:01 23° NNE
CSL-04 Rocket 3.8 17:06:13 10° SE 17:11:35 57° ENE 17:17:02 10° N
ATLAS 5 CENTAUR R/B 3.8 17:09:51 10° WNW 17:13:10 19° NNW 17:16:48 10° NNE
Starlink AS 3.9 17:11:52 10° WNW 17:14:32 31° N 17:15:26 25° NNE
Starlink BA 3.9 17:12:14 10° WNW 17:14:55 31° N 17:15:49 25° NNE
Starlink AU 3.9 17:12:28 10° WNW 17:15:09 31° N 17:16:02 25° NNE
Starlink AT 3.9 17:12:41 10° WNW 17:15:21 31° N 17:16:14 25° NNE
Starlink BB 3.9 17:12:55 10° WNW 17:15:35 31° N 17:16:27 25° NNE
Starlink BC 3.9 17:13:09 10° WNW 17:15:49 31° N 17:16:41 26° NNE
Starlink BK 3.9 17:13:23 10° WNW 17:16:03 31° N 17:16:54 26° NNE
Starlink AY 3.9 17:13:37 10° WNW 17:16:17 31° N 17:17:07 26° NNE
Shenzhou-11 Module 3.6 17:14:20 10° SW 17:16:26 20° S 17:17:17 17° SE
Cosmos 1455 2.0 17:12:39 10° N 17:16:29 76° E 17:20:16 10° SSE
Starlink AW 3.9 17:13:50 10° WNW 17:16:30 31° N 17:17:19 26° NNE
Ariane Rocket 3.7 17:12:11 10° ESE 17:16:33 30° ENE 17:20:56 10° N
USA 116 3.8 17:16:03 30° ENE 17:16:35 32° E 17:19:23 10° SSE
Starlink BJ 3.9 17:14:03 10° WNW 17:16:44 31° N 17:17:33 26° NNE
Starlink AV 3.9 17:14:17 10° WNW 17:16:57 31° N 17:17:45 26° NNE
Cosmos 1727 Rocket 4.1 17:11:08 10° N 17:17:09 50° ENE 17:23:06 10° SSE
Starlink BD 3.9 17:14:30 10° WNW 17:17:10 31° N 17:17:58 26° NNE
Starlink BE 3.9 17:14:42 10° WNW 17:17:24 31° N 17:18:12 26° NNE
Starlink BM 3.9 17:14:57 10° WNW 17:17:37 31° N 17:18:24 26° NNE
Starlink AQ 3.9 17:14:56 10° WNW 17:17:38 31° N 17:18:26 26° NNE
Starlink AX 3.9 17:15:12 10° WNW 17:17:52 31° N 17:18:38 26° NNE
Starlink BH 3.9 17:15:25 10° WNW 17:18:05 31° N 17:18:51 26° NNE
CZ-2D R/B 3.5 17:14:38 10° SE 17:18:18 45° ENE 17:22:01 10° N
Starlink AZ 3.9 17:15:38 10° WNW 17:18:19 31° N 17:19:03 27° NNE
Starlink BG 3.9 17:15:52 10° WNW 17:18:32 31° N 17:19:16 27° NNE
Starlink BF 3.9 17:16:05 10° WNW 17:18:46 31° N 17:19:30 27° NNE
Starlink BL 3.9 17:16:17 10° WNW 17:18:59 31° N 17:19:44 27° NNE
Starlink AH 3.9 17:16:32 10° WNW 17:19:12 31° N 17:19:55 27° NNE
Starlink AC 3.9 17:16:47 10° WNW 17:19:27 31° N 17:20:09 27° NNE
Starlink X 3.9 17:17:00 10° WNW 17:19:40 31° N 17:20:22 27° NNE
Starlink AE 3.9 17:17:10 10° WNW 17:19:53 31° N 17:20:36 27° NNE
Starlink Z 3.9 17:17:26 10° WNW 17:20:06 31° N 17:20:47 27° NNE
Starlink AK 3.9 17:17:33 10° WNW 17:20:13 31° N 17:20:53 27° NNE
Starlink AL 3.8 17:17:54 10° WNW 17:20:35 31° N 17:21:14 27° NNE
ATLAS 5 CENTAUR R/B 3.7 17:16:45 10° NNW 17:20:38 38° NE 17:28:16 17° E
Starlink AD 3.8 17:18:00 10° WNW 17:20:40 31° N 17:21:19 27° NNE
Starlink Y 3.8 17:18:35 10° WNW 17:21:15 31° N 17:21:53 28° NNE
Starlink AG 3.8 17:18:49 10° WNW 17:21:29 31° N 17:22:06 28° NNE
Starlink W 3.8 17:18:53 10° WNW 17:21:34 31° N 17:22:12 28° NNE
Starlink AJ 3.8 17:19:15 10° WNW 17:21:55 31° N 17:22:31 28° NNE
Starlink AM 3.8 17:19:41 10° WNW 17:22:22 31° N 17:22:56 28° NNE
Starlink AP 3.8 17:19:54 10° WNW 17:22:34 31° N 17:23:09 28° NNE
Starlink AA 3.8 17:20:09 10° WNW 17:22:49 31° N 17:23:22 28° NNE
Starlink AF 3.8 17:20:22 10° WNW 17:23:02 31° N 17:23:35 28° NNE
Starlink AB 3.8 17:20:37 10° WNW 17:23:17 31° N 17:23:49 28° NNE
Starlink AN 3.8 17:20:51 10° WNW 17:23:31 31° N 17:24:03 28° NNE
Cosmos 2221 3.4 17:21:44 10° NNE 17:25:05 27° ENE 17:25:05 27° ENE
USA 234 4.3 17:19:13 10° SSE 17:25:27 46° SW 17:31:43 10° WNW
SKYMED 2 3.5 17:21:09 10° NNE 17:25:32 90° W 17:29:53 10° SSW
SL-8 Rocket 3.9 17:19:24 10° S 17:25:42 81° E 17:32:01 10° N
ISS -3.7 17:25:45 10° SW 17:29:06 67° SSE 17:30:00 44° E
SL-16 R/B 2.2 17:23:40 10° NNW 17:29:23 89° ENE 17:35:04 10° SSE
ATLAS CENTAUR R/B 1.2 17:26:33 10° NNW 17:30:37 57° NE 17:32:07 33° ESE
CZ-4 R/B 1.6 17:27:25 10° S 17:31:30 74° WSW 17:35:40 10° NNW
Cosmos-2242 3.6 17:28:00 10° NNW 17:32:16 59° W 17:36:28 10° S
Meteor 1-27 4.3 17:28:24 10° N 17:33:49 49° ENE 17:39:12 10° SSE
Meteor 1-11 4.3 17:31:34 10° S 17:36:59 53° E 17:42:24 10° NNE
Cosmos 2219 4.0 17:32:22 10° SW 17:37:50 51° NW 17:43:21 10° NNE
Cosmos 2341 Rocket 4.5 17:31:53 10° SSW 17:38:12 64° WNW 17:44:31 10° N
Cosmos 2082 3.6 17:33:03 10° SSW 17:38:39 74° ESE 17:42:52 18° NNE
Cosmos 1603 4.2 17:36:33 10° NNW 17:41:53 39° NE 17:43:21 33° E
YAOGAN 1 2.8 17:39:16 10° S 17:43:35 72° WSW 17:47:55 10° NNW
Cosmos 2297 Rocket 2.7 17:40:59 10° SW 17:46:34 60° WNW 17:51:50 12° NNE
H-2A R/B 2.9 17:49:40 30° NE 17:49:40 30° NE 17:53:09 10° N
Cosmos 2251 Rocket 3.6 17:44:56 10° NNW 17:50:15 77° WSW 17:55:34 10° SSE
Cosmos 1328 4.0 17:47:23 10° SSW 17:51:23 70° W 17:55:21 10° N
ADEOS Rocket 3.4 17:45:05 10° NNE 17:51:36 54° E 17:58:44 10° S
DMSP B5D1-3 4.4 17:46:59 10° NNE 17:52:06 68° ESE 17:57:10 10° S
Starlink T 4.2 17:51:25 10° WNW 17:53:41 30° NNW 17:53:41 30° NNW
Meteor 2-10 Rocket 4.3 17:49:21 10° NNW 17:54:31 52° W 17:59:27 10° S
Cosmos 1356 Rocket 3.3 17:50:38 10° NNW 17:54:42 87° W 17:58:48 10° S
Starlink N 4.3 17:53:07 10° WNW 17:55:19 30° NNW 17:55:19 30° NNW
Starlink Q 4.4 17:55:04 10° WNW 17:57:11 29° NNW 17:57:11 29° NNW
Cosmos 2263 Rocket 4.0 17:53:43 10° SSE 17:54:46 14° SE 17:54:46 14° SE
ERBS 3.5 17:55:37 10° W 17:58:40 32° NNW 17:58:46 32° NNW
SL-8 R/B 3.7 17:54:12 10° WSW 17:58:59 72° SSE 17:59:55 55° ESE
Cosmos 1821 Rocket 4.1 17:53:02 10° SSE 17:59:05 49° E 18:05:08 10° NNE
Cosmos 2227 Rocket 2.9 17:53:57 10° SW 17:59:29 53° WNW 18:04:16 14° NNE
Starlink P 4.4 17:56:51 10° WNW 17:58:54 29° NNW 17:58:54 29° NNW
ARGOS 3.9 18:02:01 34° NE 18:02:01 34° NE 18:05:49 10° N
Cosmos 2218 Rocket 4.4 17:58:46 10° SSW 18:05:04 65° WNW 18:11:28 10° N
IRS-1A Rocket 4.2 18:00:38 10° SSE 18:06:21 71° ENE 18:12:00 10° NNW
SL-08 R/B 4.5 18:00:52 10° S 18:07:11 89° WNW 18:13:39 10° N
COSMO-SKYMED 1 4.3 18:09:37 10° N 18:13:28 31° WNW 18:17:18 10° SW
MOS 1 4.2 18:11:18 37° SE 18:13:31 65° ENE 18:19:10 10° N
Cosmos 1943 3.4 18:09:21 10° NNW 18:14:37 51° NE 18:14:37 51° NE
Cosmos 1842 Rocket 3.8 18:13:30 10° NNW 18:17:58 69° W 18:22:26 10° S
SJ-11-01 4.1 18:18:29 79° ESE 18:18:40 81° ENE 18:23:25 10° NNW
Cosmos 2123 Rocket 4.2 18:16:38 10° N 18:22:05 50° NE 18:22:05 50° NE
Cosmos 44 4.0 18:22:19 10° WSW 18:26:38 43° NW 18:27:21 39° NNW
CZ-2C R/B 4.0 18:32:42 39° NNE 18:32:42 39° NNE 18:36:24 10° N
Cosmos 1000 Rocket 4.4 18:25:46 10° N 18:31:59 86° W 18:38:14 10° S
USA 267 3.9 18:30:19 36° NNE 18:32:17 45° N 18:38:25 10° W
Cosmos 407 Rocket 3.9 18:28:24 10° NNW 18:32:31 52° N 18:32:31 52° N
BREEZE-M DEB (TANK) 3.8 18:29:20 10° W 18:42:57 88° NNE 18:43:09 84° E
Ariane Rocket 4.1 18:50:33 10° S 18:55:21 42° W 19:00:12 10° NNW
ATLAS 5 CENTAUR R/B 4.2 18:56:37 10° NNW 18:58:33 15° N 18:58:33 15° N
Cosmos 2221 4.4 18:59:15 10° NNW 19:02:03 28° WNW 19:02:03 28° WNW
ISS -0.3 19:02:44 10° W 19:02:59 12° W 19:02:59 12° W
ATLAS CENTAUR R/B 4.0 19:06:27 10° WNW 19:08:23 16° W 19:08:23 16° W
H-2A R/B 3.9 19:30:16 25° NW 19:30:16 25° NW 19:32:44 10° NNW
